Location: Roland
(31.1349°N, 85.4372°W)
Time: 23:05:07
(UTC+00:00)

S-56A Canister/Altair - Pass Details

Date: 20 April 2021
Orbit: 632 x 2501 km, 38.9° (Epoch: 11 May)

Event Time Altitude Azimuth Distance (km) Brightness Sun altitude
Rises 03:42:57 0° 234° (SW) 5,272 11.8 -38.8°
Reaches altitude 10° 03:46:54 10° 232° (SW) 3,989 11.1 -39.3°
Enters shadow 03:48:57 17° 230° (SW) 3,312 10.7 -39.6°
